Hourly Weather Hominka

Today, 16 April, Friday

Time Temperature Precipitation Wind Pressure Humidity
00:00 +8°C° 0 mm 1 mps 748 mmHg 86%
01:00 +7°C° 0 mm 0 mps 747 mmHg 86%
02:00 +7°C° 0 mm 0 mps 747 mmHg 87%
03:00 +8°C° 0.1 mm 1 mps 747 mmHg 89%
04:00 +8°C° 0.1 mm 1 mps 747 mmHg 90%
05:00 +8°C° 0.1 mm 1 mps 747 mmHg 91%
06:00 +9°C° 0.6 mm 1 mps 747 mmHg 91%
07:00 +8°C° 0.6 mm 2 mps 747 mmHg 92%
08:00 +8°C° 0 mm 2 mps 747 mmHg 93%
09:00 +8°C° 0.4 mm 3 mps 747 mmHg 89%
10:00 +8°C° 0.4 mm 4 mps 748 mmHg 85%
11:00 +8°C° 0.4 mm 5 mps 748 mmHg 81%
12:00 +8°C° 0.5 mm 4 mps 748 mmHg 83%
13:00 +8°C° 0.5 mm 4 mps 748 mmHg 85%
14:00 +8°C° 0.5 mm 4 mps 749 mmHg 87%
15:00 +9°C° 0.1 mm 3 mps 749 mmHg 85%
16:00 +9°C° 0.1 mm 3 mps 749 mmHg 84%
17:00 +10°C° 0.1 mm 2 mps 749 mmHg 82%
18:00 +9°C° 0.1 mm 2 mps 749 mmHg 84%
19:00 +9°C° 0.1 mm 2 mps 749 mmHg 87%
20:00 +8°C° 0.1 mm 2 mps 749 mmHg 89%
21:00 +8°C° 0 mm 2 mps 749 mmHg 90%
22:00 +7°C° 0 mm 2 mps 749 mmHg 91%
23:00 +7°C° 0 mm 2 mps 750 mmHg 92%

Tomorrow, 17 April, Saturday

Time Temperature Precipitation Wind Pressure Humidity
00:00 +7°C° 0 mm 2 mps 750 mmHg 92%
01:00 +6°C° 0 mm 2 mps 750 mmHg 93%
02:00 +6°C° 0 mm 2 mps 750 mmHg 94%
03:00 +5°C° 0 mm 2 mps 751 mmHg 94%
04:00 +4°C° 0 mm 2 mps 751 mmHg 94%
05:00 +4°C° 0 mm 2 mps 751 mmHg 94%
06:00 +5°C° 0 mm 2 mps 752 mmHg 89%
07:00 +6°C° 0 mm 2 mps 752 mmHg 84%
08:00 +7°C° 0 mm 2 mps 752 mmHg 80%
09:00 +8°C° 0 mm 2 mps 753 mmHg 76%
10:00 +8°C° 0 mm 2 mps 753 mmHg 72%
11:00 +9°C° 0 mm 3 mps 753 mmHg 68%
12:00 +10°C° 0 mm 2 mps 753 mmHg 64%
13:00 +10°C° 0 mm 2 mps 753 mmHg 60%
14:00 +12°C° 0 mm 1 mps 753 mmHg 56%
15:00 +12°C° 0 mm 1 mps 753 mmHg 58%
16:00 +12°C° 0 mm 1 mps 752 mmHg 60%
17:00 +11°C° 0 mm 1 mps 752 mmHg 61%
18:00 +10°C° 0 mm 2 mps 752 mmHg 67%
19:00 +9°C° 0 mm 2 mps 752 mmHg 72%
20:00 +8°C° 0 mm 3 mps 752 mmHg 77%
21:00 +8°C° 0.3 mm 3 mps 751 mmHg 81%
22:00 +6°C° 0.3 mm 4 mps 751 mmHg 84%
23:00 +6°C° 0.3 mm 4 mps 750 mmHg 88%

Day after tomorrow, 18 April, Sunday

Time Temperature Precipitation Wind Pressure Humidity
00:00 +6°C° 1.3 mm 4 mps 749 mmHg 89%
01:00 +6°C° 1.3 mm 5 mps 749 mmHg 91%
02:00 +7°C° 1.3 mm 5 mps 748 mmHg 93%
03:00 +6°C° 0.8 mm 4 mps 748 mmHg 93%
04:00 +6°C° 0.8 mm 4 mps 748 mmHg 92%
05:00 +5°C° 0.8 mm 4 mps 748 mmHg 92%
06:00 +5°C° 0.1 mm 4 mps 748 mmHg 93%
07:00 +3°C° 0.1 mm 5 mps 748 mmHg 94%
08:00 +2°C° 0.1 mm 6 mps 748 mmHg 95%
09:00 +2°C° 0.4 mm 6 mps 749 mmHg 95%
10:00 +2°C° 0.4 mm 6 mps 749 mmHg 95%
11:00 +2°C° 0.4 mm 6 mps 750 mmHg 94%
12:00 +3°C° 0.3 mm 6 mps 750 mmHg 93%
13:00 +3°C° 0.3 mm 6 mps 750 mmHg 91%
14:00 +4°C° 0.3 mm 6 mps 751 mmHg 89%
15:00 +4°C° 0 mm 6 mps 751 mmHg 89%
16:00 +5°C° 0 mm 5 mps 751 mmHg 88%
17:00 +5°C° 0 mm 5 mps 751 mmHg 87%
18:00 +5°C° 0 mm 4 mps 751 mmHg 87%
19:00 +4°C° 0 mm 4 mps 751 mmHg 88%
20:00 +4°C° 0 mm 3 mps 751 mmHg 88%
21:00 +4°C° 0.1 mm 3 mps 751 mmHg 89%
22:00 +4°C° 0.1 mm 3 mps 751 mmHg 89%
23:00 +4°C° 0.1 mm 3 mps 751 mmHg 90%

19 April, Monday

Time Temperature Precipitation Wind Pressure Humidity
00:00 +4°C° 0.1 mm 3 mps 751 mmHg 91%
01:00 +4°C° 0.1 mm 3 mps 751 mmHg 92%
02:00 +4°C° 0.1 mm 3 mps 750 mmHg 93%
03:00 +4°C° 0.1 mm 3 mps 750 mmHg 93%
04:00 +4°C° 0.1 mm 3 mps 750 mmHg 94%
05:00 +4°C° 0.1 mm 3 mps 750 mmHg 94%
06:00 +5°C° 0.1 mm 2 mps 750 mmHg 94%
07:00 +6°C° 0.1 mm 2 mps 750 mmHg 94%
08:00 +6°C° 0.1 mm 2 mps 750 mmHg 93%
09:00 +6°C° 0.1 mm 2 mps 750 mmHg 91%
10:00 +6°C° 0.1 mm 2 mps 750 mmHg 89%
11:00 +7°C° 0.1 mm 2 mps 750 mmHg 87%
12:00 +8°C° 0.1 mm 2 mps 750 mmHg 83%
13:00 +8°C° 0.1 mm 3 mps 750 mmHg 78%
14:00 +9°C° 0.1 mm 3 mps 750 mmHg 73%
15:00 +9°C° 0.1 mm 2 mps 750 mmHg 72%
16:00 +9°C° 0.1 mm 2 mps 749 mmHg 72%
17:00 +9°C° 0.1 mm 2 mps 749 mmHg 71%
18:00 +9°C° 0 mm 1 mps 749 mmHg 77%
19:00 +8°C° 0 mm 1 mps 749 mmHg 83%
20:00 +6°C° 0 mm 1 mps 749 mmHg 89%
21:00 +6°C° 0 mm 1 mps 748 mmHg 89%
22:00 +6°C° 0 mm 1 mps 748 mmHg 90%
23:00 +5°C° 0 mm 2 mps 748 mmHg 91%

20 April, Tuesday

Time Temperature Precipitation Wind Pressure Humidity
00:00 +5°C° 0 mm 2 mps 747 mmHg 92%
01:00 +6°C° 0 mm 2 mps 746 mmHg 94%
02:00 +6°C° 0 mm 2 mps 745 mmHg 95%
03:00 +6°C° 0 mm 2 mps 745 mmHg 96%
04:00 +5°C° 0 mm 3 mps 744 mmHg 96%
05:00 +5°C° 0 mm 3 mps 743 mmHg 97%
06:00 +6°C° 0 mm 4 mps 742 mmHg 96%
07:00 +6°C° 0 mm 4 mps 741 mmHg 96%
08:00 +6°C° 0 mm 4 mps 740 mmHg 95%
09:00 +6°C° 0.8 mm 5 mps 739 mmHg 95%
10:00 +6°C° 0.8 mm 5 mps 738 mmHg 96%
11:00 +6°C° 0.8 mm 5 mps 737 mmHg 96%
12:00 +6°C° 1.9 mm 5 mps 736 mmHg 96%
13:00 +6°C° 1.9 mm 5 mps 736 mmHg 96%
14:00 +6°C° 1.9 mm 5 mps 735 mmHg 95%
15:00 +6°C° 1.7 mm 5 mps 735 mmHg 95%
16:00 +6°C° 1.7 mm 5 mps 735 mmHg 94%
17:00 +5°C° 1.7 mm 5 mps 735 mmHg 94%
18:00 +5°C° 1.1 mm 5 mps 735 mmHg 94%
19:00 +5°C° 1.1 mm 5 mps 736 mmHg 94%
20:00 +3°C° 1.1 mm 5 mps 736 mmHg 94%
21:00 +3°C° 0.1 mm 5 mps 737 mmHg 94%
22:00 +4°C° 0.1 mm 6 mps 737 mmHg 94%
23:00 +4°C° 0.1 mm 6 mps 738 mmHg 94%

21 April, Wednesday

Time Temperature Precipitation Wind Pressure Humidity
00:00 +4°C° 0.1 mm 6 mps 738 mmHg 91%
01:00 +4°C° 0.1 mm 6 mps 739 mmHg 89%
02:00 +4°C° 0.1 mm 6 mps 739 mmHg 87%
03:00 +4°C° 0.1 mm 6 mps 739 mmHg 87%
04:00 +4°C° 0.1 mm 6 mps 740 mmHg 87%
05:00 +4°C° 0.1 mm 6 mps 740 mmHg 87%
06:00 +4°C° 0.1 mm 7 mps 741 mmHg 87%
07:00 +4°C° 0.1 mm 7 mps 741 mmHg 87%
08:00 +4°C° 0.1 mm 8 mps 742 mmHg 87%
09:00 +4°C° 0.3 mm 8 mps 742 mmHg 88%
10:00 +4°C° 0.3 mm 8 mps 743 mmHg 88%
11:00 +4°C° 0.3 mm 8 mps 744 mmHg 88%
12:00 +5°C° 0.1 mm 7 mps 744 mmHg 84%
13:00 +6°C° 0.1 mm 7 mps 745 mmHg 79%
14:00 +8°C° 0.1 mm 6 mps 745 mmHg 75%
15:00 +9°C° 0.1 mm 6 mps 746 mmHg 73%
16:00 +9°C° 0.1 mm 5 mps 746 mmHg 71%
17:00 +10°C° 0.1 mm 5 mps 747 mmHg 69%
18:00 +9°C° 0 mm 5 mps 748 mmHg 73%
19:00 +8°C° 0 mm 4 mps 748 mmHg 77%
20:00 +7°C° 0 mm 3 mps 749 mmHg 80%
21:00 +7°C° 0 mm 3 mps 749 mmHg 83%
22:00 +5°C° 0 mm 3 mps 750 mmHg 85%
23:00 +4°C° 0 mm 3 mps 750 mmHg 87%
Show more